Location: Recife
(8.0585°S, 34.8848°W)
Time: 12:09:49
(UTC-03:00)

Injun/Solrad 3 - Pass Details

Date: 17 April 2026
Orbit: 868 x 988 km, 66.8° (Epoch: 12 May)

Event Time Altitude Azimuth Distance (km) Brightness Sun altitude
Rises 06:36:23 0° 18° (NNE) 3,678 11.5 17.2°
Reaches altitude 10° 06:40:19 10° 41° (NE) 2,732 11.4 18.2°
Maximum altitude 06:43:35 14° 72° (ENE) 2,417 13.1 19.0°
Drops below altitude 10° 06:46:50 10° 103° (ESE) 2,722 11.6 19.7°
Sets 06:50:42 0° 126° (SE) 3,655 11.6 20.7°
